Weather History for Fort Lauderdale, FL

Change the Weather History Date:

Thursday, December 20, 2012

  Actual Average Record
Temperature  
Mean Temperature 73 °F -  
Max Temperature 82 °F 78 °F 87 °F (1948)
Min Temperature 64 °F 61 °F 33 °F (1950)
Cooling Degree Days 8    
Growing Degree Days 23 (Base 50)    
Moisture  
Dew Point 63 °F    
Average Humidity 70    
Maximum Humidity 90    
Minimum Humidity 45    
Precipitation  
Precipitation 0.00 in - - ()
Sea Level Pressure  
Sea Level Pressure 30.05 in    
Wind  
Wind Speed 4 mph (SSE)    
Max Wind Speed 15 mph    
Max Gust Speed 21 mph    
Visibility 10 miles    
Events      
Averages and records for this station are not official NWS values.
T = Trace of Precipitation, MM = Missing Value Source: NWS Daily Summary

Daily Weather History Graph

Daily Weather History Graph

Search for Another Location

Airport:

Trip Planner

Search our weather history database for the weather conditions in past years. The results will help you decide how hot, cold, wet, or windy it might be!

Date:

Astronomy

Dec. 20, 2012 Rise Set
Actual Time 7:03 AM EST 5:33 PM EST
Civil Twilight 6:38 AM EST 5:58 PM EST
Nautical Twilight 6:09 AM EST 6:27 PM EST
Astronomical Twilight 5:41 AM EST 6:56 PM EST
Moon 12:23 PM EST (12/20) 12:19 AM EST (12/20)
Length of Visible Light 11h 20m
Length of Day
10h 29m
First Quarter, 55% of the Moon is Illuminated
Dec 20
First Quarter
Dec 28
Full
Jan 4
Last Quarter
Jan 11
New
Jan 18
First Quarter

Hourly Weather History & Observations

Time (EST) Temp. Heat Index Dew Point Humidity Pressure Visibility Wind Dir Wind Speed Gust Speed Precip Events Conditions
12:53 AM 66.9 °F - 61.0 °F 81% 30.08 in 10.0 mi Calm Calm - N/A   Scattered Clouds
1:53 AM 69.1 °F - 62.1 °F 78% 30.08 in 10.0 mi Calm Calm - N/A   Scattered Clouds
2:53 AM 66.0 °F - 61.0 °F 84% 30.08 in 10.0 mi Calm Calm - N/A   Partly Cloudy
3:53 AM 66.0 °F - 61.0 °F 84% 30.07 in 10.0 mi Calm Calm - N/A   Clear
4:53 AM 68.0 °F - 62.1 °F 81% 30.06 in 10.0 mi Calm Calm - N/A   Clear
5:53 AM 69.1 °F - 63.0 °F 81% 30.07 in 10.0 mi NE 3.5 mph - N/A   Partly Cloudy
6:53 AM 64.9 °F - 62.1 °F 90% 30.08 in 10.0 mi Calm Calm - N/A   Clear
7:53 AM 69.1 °F - 64.0 °F 84% 30.09 in 10.0 mi SE 3.5 mph - N/A   Clear
8:53 AM 77.0 °F - 63.0 °F 62% 30.09 in 10.0 mi SE 10.4 mph - N/A   Scattered Clouds
9:53 AM 79.0 °F - 61.0 °F 54% 30.10 in 10.0 mi SE 10.4 mph 18.4 mph N/A   Scattered Clouds
10:53 AM 80.1 °F 81.2 °F 62.1 °F 54% 30.10 in 10.0 mi SE 9.2 mph - N/A   Scattered Clouds
11:53 AM 81.0 °F 81.6 °F 60.1 °F 49% 30.09 in 10.0 mi ESE 6.9 mph - N/A   Scattered Clouds
12:53 PM 81.0 °F 81.3 °F 59.0 °F 47% 30.05 in 10.0 mi SSE 10.4 mph - N/A   Scattered Clouds
1:53 PM 82.0 °F 82.1 °F 59.0 °F 45% 30.02 in 10.0 mi SE 12.7 mph - N/A   Scattered Clouds
2:53 PM 81.0 °F 81.9 °F 62.1 °F 52% 30.00 in 10.0 mi SSE 15.0 mph 18.4 mph N/A   Scattered Clouds
3:53 PM 78.1 °F - 63.0 °F 60% 29.99 in 10.0 mi SSE 12.7 mph 19.6 mph N/A   Scattered Clouds
4:53 PM 77.0 °F - 64.0 °F 64% 29.99 in 10.0 mi SSE 12.7 mph 20.7 mph N/A   Clear
5:53 PM 75.9 °F - 66.0 °F 71% 30.01 in 10.0 mi South 6.9 mph - N/A   Clear
6:53 PM 75.0 °F - 64.9 °F 71% 30.03 in 10.0 mi South 5.8 mph - N/A   Clear
7:53 PM 73.9 °F - 64.0 °F 71% 30.03 in 10.0 mi SSW 4.6 mph - N/A   Clear
8:53 PM 71.1 °F - 64.0 °F 78% 30.04 in 10.0 mi Calm Calm - N/A   Clear
9:53 PM 72.0 °F - 64.9 °F 78% 30.04 in 10.0 mi Calm Calm - N/A   Clear
10:53 PM 70.0 °F - 64.9 °F 84% 30.04 in 10.0 mi SSW 3.5 mph - N/A   Clear
11:53 PM 70.0 °F - 64.9 °F 84% 30.03 in 10.0 mi SSW 3.5 mph - N/A   Clear